Terug naar catalogus

FENGYUN 1C DEB

ActiefSSO
NORAD 30415·DEBRIS·🇨🇳 China

Gelanceerd May 10, 1999 vanaf Taiyuan Satellite Launch Center

Loading…

Volgende Passages (komende 24 uur)

TLE

VersSource: Space-Track

Epoch: Sep 14, 2026, 10:14 UTC

1 30415U 99025AEE 26257.42669399  .00001047  00000-0  10401-2 0  9998
2 30415  99.6340 322.9617 0231148 281.1529  90.0378 13.69588088976514

Volg FENGYUN 1C DEB in realtime met AllMySat

Download on the App Store